Temperature
5 5 4 5 6 7 7 8 8 9 10 10 10 10 10 11 11 11 12 13 14 15 16 16 16 16 16 16 16 16 16 16 15 15 15 15 15 15 14 14 14 14 14 14
4 4 5 6 7 7 7 8 8 9 10 10 9 10 10 11 11 11 12 13 14 14 15 16 16 16 16 16 16 16 16 16 16 16 15 15 15 15 15 14 14 14 14 14
5 5 6 7 7 7 7 8 8 9 9 10 10 10 10 11 11 12 12 13 14 15 15 16 16 16 16 17 16 16 16 16 16 15 15 15 15 14 14 14 14 14 14 14
5 6 7 7 7 7 8 8 9 9 9 9 9 9 10 11 11 12 12 13 14 15 16 16 16 16 17 17 17 17 16 16 16 16 15 15 15 15 15 15 15 14 14 14
5 6 6 7 8 8 8 9 9 9 9 8 9 9 9 10 11 12 12 14 15 16 16 16 17 17 17 17 17 16 16 16 16 16 15 15 15 15 15 15 15 14 14 14
6 7 7 7 8 8 8 9 9 8 8 8 9 9 9 10 11 12 13 14 15 16 16 16 17 17 16 16 16 16 16 16 16 15 15 15 15 15 15 15 14 14 14 14
6 7 7 7 8 8 8 8 7 8 8 8 9 9 10 11 12 12 13 14 15 15 16 16 16 16 16 16 16 16 16 15 15 15 15 15 15 15 15 15 14 14 14 14
5 6 7 7 8 8 8 8 7 8 8 8 9 9 10 11 12 13 13 14 14 15 15 16 16 16 16 16 16 15 15 15 15 15 15 15 14 14 14 14 14 14 14 13
6 6 7 8 8 8 8 7 8 7 8 8 9 10 11 12 11 11 12 13 14 14 15 15 15 15 15 15 15 15 15 15 14 14 14 14 14 14 14 14 13 13 13 13
7 6 7 8 8 9 9 8 7 7 8 8 9 10 10 11 11 10 10 12 13 14 14 14 14 14 14 14 14 14 14 14 14 13 13 13 13 13 13 13 13 12 12 12
7 6 7 7 7 8 8 9 8 7 7 7 8 9 10 10 10 10 10 12 13 13 13 13 14 14 14 13 13 13 13 13 13 12 12 12 12 12 12 12 12 12 11 11
7 6 6 7 8 8 8 9 8 8 7 7 7 8 10 9 9 9 10 12 12 12 13 13 13 13 13 13 12 12 12 12 12 11 11 11 11 11 11 11 11 11 11 10
7 6 6 6 7 8 8 9 8 7 7 6 7 9 10 9 9 10 11 11 12 12 12 12 12 12 12 12 12 11 11 11 10 10 10 10 10 10 10 10 10 10 10 9
8 6 6 6 7 7 7 8 8 7 6 7 7 8 9 9 9 10 10 11 11 11 11 11 11 11 11 11 11 11 10 10 9 9 9 9 9 9 9 9 9 9 9 9
7 6 7 7 7 7 8 8 8 7 7 7 8 8 9 9 9 9 10 10 10 10 10 10 10 10 10 10 10 10 10 9 9 8 8 8 9 9 9 9 8 8 8 8
6 6 6 6 7 7 7 7 8 8 8 7 8 8 8 9 9 9 9 9 9 9 9 10 10 10 10 10 10 9 9 9 8 8 8 8 8 8 8 8 8 7 7 7
5 5 5 5 7 7 6 7 7 7 7 7 7 8 8 8 8 8 8 8 8 8 8 9 9 9 9 9 9 9 9 8 8 8 8 8 8 8 7 7 7 7 6 6
5 5 4 5 6 5 6 7 7 7 6 6 7 7 7 7 7 7 7 7 7 7 8 8 8 9 9 9 9 9 8 8 8 8 7 7 7 7 7 7 6 6 5 5
5 5 4 4 5 5 6 7 7 7 6 5 6 6 6 7 6 6 6 6 6 7 7 7 8 8 8 8 8 8 8 8 8 7 7 7 7 7 6 6 5 5 5 4
5 5 4 4 5 5 6 7 7 7 5 5 5 4 5 6 5 5 6 6 6 6 6 7 7 7 8 8 8 8 8 7 7 7 7 7 6 6 6 5 5 4 4 3
5 4 4 4 4 5 5 6 7 6 5 4 4 4 4 4 4 5 5 5 6 6 6 6 6 7 7 7 7 7 7 7 7 6 6 6 5 5 5 4 4 3 3 2
3 3 3 3 4 4 5 5 5 4 4 4 4 4 4 4 4 4 5 5 5 5 5 5 5 6 6 6 6 6 6 6 6 6 5 5 5 4 4 3 3 3 2 2
3 3 3 3 4 4 4 4 4 4 3 3 3 3 3 3 3 4 4 4 4 4 4 5 5 5 5 5 5 5 5 5 5 5 5 4 4 4 3 3 3 2 2 2
3 3 3 3 3 3 3 3 3 3 3 3 3 3 2 2 3 3 3 3 3 3 4 4 4 4 4 4 4 4 4 4 4 4 4 4 3 3 3 2 2 2 2 1
2 2 2 2 2 2 2 2 2 2 2 2 2 2 2 2 2 2 2 2 3 3 3 3 3 3 3 4 4 4 3 3 4 3 3 3 3 3 2 2 2 2 1 1
1 1 1 2 2 2 2 2 2 2 1 1 1 1 1 1 1 1 1 1 2 2 2 2 2 2 3 3 3 3 3 3 3 3 3 2 2 2 2 2 1 1 1 1
Wind_Speed
0 1 3 4 5 1 1 4 6 4 3 5 6 5 5 4 3 5 6 6 8 9 7 6 8 8 8 8 9 11 11 10 9 7 7 6 6 5 4 6 9 10 10 10
1 2 3 3 3 1 1 4 4 4 4 4 5 6 6 6 6 7 9 9 10 8 7 7 7 7 9 10 10 10 11 10 10 8 6 4 4 4 4 4 7 9 9 9
2 2 3 4 4 2 2 4 5 5 4 2 4 3 8 6 8 10 10 11 11 12 11 10 9 9 9 10 11 11 11 11 10 8 5 4 3 2 3 4 4 5 8 8
1 2 3 4 4 5 3 5 5 7 6 2 4 3 6 8 9 12 13 13 12 12 11 10 10 10 10 10 9 10 10 10 10 9 8 8 7 6 6 5 4 4 6 7
1 1 2 2 3 4 3 5 6 6 5 3 3 2 5 6 10 14 15 15 13 12 12 12 12 12 10 8 7 8 8 8 8 9 11 10 7 6 4 4 6 4 4 5
1 1 1 2 1 3 3 6 7 5 3 3 6 4 5 6 12 12 13 13 12 11 11 10 9 7 6 6 6 6 7 7 6 8 9 10 9 8 8 7 6 5 3 3
3 1 1 0 2 3 4 6 3 2 1 4 5 5 7 8 10 13 13 11 9 8 8 8 8 8 7 8 7 7 8 6 5 6 7 8 8 9 9 8 7 6 4 3
2 1 2 1 1 3 2 3 4 4 5 2 3 6 6 6 3 5 6 6 6 5 6 7 8 8 8 7 7 7 7 6 5 6 5 5 6 6 5 6 6 6 5 4
3 0 1 1 0 3 4 2 3 3 2 2 3 4 5 3 3 4 6 6 5 4 5 6 6 6 7 7 6 7 7 5 5 5 5 5 5 5 6 6 5 5 5 5
4 3 1 1 2 2 2 4 4 3 4 2 1 2 3 4 2 3 5 6 4 4 3 4 4 4 4 5 4 5 6 6 5 6 6 6 6 6 7 7 7 6 6 5
3 4 1 2 1 1 1 2 3 2 2 4 3 4 4 6 5 6 5 5 5 4 3 2 2 3 3 4 4 4 5 5 5 6 6 7 7 7 7 7 7 6 5 5
3 3 2 1 3 2 1 2 3 3 1 2 3 4 7 1 4 6 5 4 3 3 2 1 1 2 3 4 5 5 6 6 6 6 7 7 7 7 7 7 6 6 6 5
4 4 3 3 3 2 1 1 3 4 3 3 3 3 5 5 5 4 4 3 2 2 1 1 0 2 3 4 5 5 6 6 6 7 7 7 7 7 7 7 6 6 6 5
4 3 4 6 4 4 3 3 3 4 3 2 4 3 3 3 3 3 2 2 1 1 0 1 2 3 4 4 5 6 6 7 7 8 8 8 7 7 7 6 6 6 6 5
3 3 1 1 1 2 2 3 4 5 6 6 4 4 3 1 1 1 1 1 2 2 2 2 3 4 4 4 5 6 6 7 8 8 8 8 7 7 7 6 6 5 5 5
3 3 2 2 1 1 1 2 4 4 4 5 4 4 4 1 2 2 2 2 2 3 4 4 4 4 5 6 6 6 7 8 8 9 8 8 8 7 7 7 6 6 5 4
2 4 3 1 2 3 4 5 6 4 3 5 7 6 3 1 1 1 2 3 3 5 6 6 5 6 6 6 7 8 8 7 8 9 8 8 8 8 7 7 7 6 5 5
4 4 3 2 2 3 5 3 3 4 1 1 1 1 1 2 3 3 2 2 4 5 6 7 6 7 6 6 5 6 6 8 9 9 9 9 9 8 8 7 7 6 5 5
4 5 3 3 2 4 5 2 1 3 1 4 1 2 2 1 3 1 2 3 3 4 5 6 6 7 6 5 4 5 6 7 9 9 9 9 10 9 9 8 7 6 5 5
4 4 4 3 3 5 4 2 1 4 1 3 3 4 3 3 1 3 5 5 5 5 5 5 6 5 5 4 2 5 6 7 9 9 9 9 9 9 9 8 7 5 5 5
3 2 3 3 4 5 4 3 2 3 4 1 2 3 3 1 3 5 6 5 5 5 6 6 6 6 5 3 1 4 5 7 7 6 7 8 8 9 8 7 6 5 5 5
6 5 5 4 5 6 2 2 3 3 2 2 2 3 3 3 4 4 5 5 5 6 6 6 6 6 6 3 0 2 4 4 4 6 7 7 8 7 7 8 7 7 7 7
5 6 5 6 5 0 2 3 3 2 2 1 2 3 4 4 5 5 5 5 5 5 5 5 5 5 5 4 2 2 3 2 4 5 6 6 7 7 7 8 8 7 7 7
2 2 3 2 2 2 3 4 3 3 2 1 2 4 4 5 6 6 6 5 5 5 5 5 4 5 5 4 3 2 2 2 4 6 6 6 7 7 7 7 7 7 8 8
5 4 3 2 2 3 1 1 1 1 1 2 4 4 5 6 7 6 6 6 5 5 5 4 4 5 5 4 4 3 2 2 4 5 5 6 6 7 7 7 8 9 9 9
4 6 6 6 6 5 4 3 1 0 2 3 4 5 5 5 7 7 6 6 5 6 5 5 5 5 5 5 4 3 2 2 3 4 5 5 5 6 6 6 6 11 12 15
Wind_Direction
6 151 197 206 202 221 139 158 158 162 154 160 195 224 251 255 254 249 248 242 243 240 237 214 197 188 181 181 179 180 178 178 172 171 175 178 184 180 176 182 186 184 184 184
85 235 222 185 178 156 161 152 150 133 144 147 177 223 236 227 232 237 239 240 241 241 243 223 207 194 190 188 187 184 183 182 183 185 181 176 171 175 180 176 179 182 179 179
185 238 194 169 163 160 186 172 160 148 131 136 136 223 233 229 229 236 230 231 231 223 221 215 203 201 199 196 191 192 190 186 186 178 159 141 127 126 160 177 177 176 169 168
239 242 194 183 186 169 184 187 162 147 134 155 151 211 241 223 228 230 230 224 224 224 218 215 205 203 203 203 195 192 191 187 185 176 174 173 180 191 197 182 170 152 145 142
273 212 166 185 197 169 188 166 149 141 126 115 155 190 267 213 223 230 228 224 219 222 215 212 207 204 202 197 189 188 186 187 185 183 185 185 188 192 171 150 151 150 133 127
232 225 199 223 243 166 145 106 89 81 100 172 187 180 258 217 214 220 224 221 219 216 216 213 208 195 189 182 180 178 177 184 183 183 185 187 185 175 164 162 164 157 140 124
20 350 313 260 87 77 111 111 104 113 134 233 183 185 246 242 227 214 210 209 209 205 199 190 184 182 180 177 178 175 172 178 178 177 181 183 182 176 176 172 169 162 157 155
86 355 306 341 134 142 152 129 148 156 175 230 171 214 253 276 263 186 176 176 176 179 180 181 182 181 182 180 176 174 174 176 172 171 173 166 164 167 168 163 160 161 158 149
143 348 316 285 44 129 135 154 160 116 118 130 223 264 311 16 58 101 119 123 138 160 164 169 171 173 178 179 182 179 173 170 167 162 150 143 145 149 146 138 128 129 130 130
143 110 345 324 64 354 154 144 100 105 137 164 238 265 253 242 189 119 115 122 126 127 136 152 163 176 181 182 181 177 174 171 162 154 149 137 128 126 126 121 121 122 121 119
121 116 34 53 127 172 91 113 110 115 147 148 174 263 261 235 201 155 140 134 126 119 117 133 165 173 173 170 171 170 168 158 154 148 136 129 126 124 120 120 125 125 120 120
137 118 111 277 274 213 183 156 138 139 173 140 147 277 318 252 154 141 139 136 117 105 104 132 162 161 173 185 183 177 172 166 161 148 138 134 128 124 123 124 126 126 123 122
136 117 98 5 335 326 267 206 145 124 108 125 141 271 343 44 71 90 113 114 90 83 73 54 161 214 211 205 196 187 180 172 158 145 142 139 137 136 139 138 135 132 130 126
129 116 158 183 216 192 206 208 159 129 143 171 200 233 341 28 56 55 65 81 74 32 20 257 255 248 235 218 204 193 186 172 159 152 152 156 157 154 151 145 141 138 135 137
108 121 146 224 213 151 188 201 179 175 182 181 203 210 248 271 164 93 53 48 43 350 320 287 264 253 244 233 219 202 190 177 165 161 165 170 161 151 146 145 143 141 145 152
88 124 88 357 343 87 323 263 210 206 199 203 210 242 256 256 101 70 44 36 8 329 312 305 291 276 254 235 223 210 199 186 172 172 176 166 157 155 155 155 153 153 158 159
108 126 119 267 349 49 290 251 214 200 208 190 215 237 242 200 135 103 41 20 350 329 322 313 297 278 261 244 224 213 204 185 178 179 174 168 164 165 166 164 163 170 174 173
133 120 124 131 86 224 252 285 186 166 315 318 224 288 252 197 145 110 64 18 342 329 322 315 305 293 278 255 234 213 187 180 182 182 178 173 170 172 169 170 177 180 176 180
145 139 133 140 187 271 288 301 131 142 58 357 53 28 14 94 105 13 4 349 315 310 305 298 293 287 285 267 233 192 183 182 184 188 187 181 176 174 175 182 184 181 178 183
88 106 130 153 187 231 249 286 328 105 174 351 55 41 14 70 74 283 324 328 322 323 317 312 314 310 309 290 214 182 188 189 199 198 190 180 176 177 183 186 181 177 179 187
117 112 151 173 219 258 265 297 69 162 227 63 53 30 20 59 231 279 312 320 323 323 325 330 333 330 318 311 178 188 197 210 208 184 172 174 178 181 181 178 175 176 180 184
166 168 182 171 205 246 286 106 154 183 105 80 42 9 344 307 301 311 319 321 326 329 329 334 337 334 333 336 159 208 224 216 173 169 175 180 180 180 177 176 181 182 185 194
182 185 184 192 209 192 77 114 95 103 109 57 356 334 328 313 310 311 308 312 316 318 319 323 326 329 336 344 339 259 257 193 174 175 185 185 181 183 178 180 185 189 195 205
244 161 148 178 197 139 105 92 67 65 85 15 339 326 328 312 307 306 304 306 312 314 312 315 319 320 322 331 328 285 266 208 188 193 193 187 187 190 188 190 191 197 205 211
206 165 155 189 162 125 155 108 92 65 39 356 336 321 314 309 304 301 302 304 307 309 309 311 306 299 301 310 309 298 265 212 206 205 201 197 198 197 199 203 206 207 214 213
196 175 175 207 196 184 199 192 170 112 316 313 312 309 307 302 301 302 297 297 301 305 307 308 306 301 299 299 295 292 269 231 216 217 211 208 206 205 207 211 222 223 223 228
Height
1480 1481 1481 1479 1479 1478 1478 1478 1480 1482 1481 1484 1487 1488 1487 1488 1489 1490 1490 1492 1493 1495 1497 1500 1502 1505 1508 1511 1513 1516 1519 1522 1525 1527 1530 1532 1535 1537 1540 1543 1545 1547 1548 1550
1482 1480 1478 1476 1477 1477 1477 1479 1480 1481 1481 1484 1488 1489 1488 1487 1488 1488 1490 1491 1492 1493 1495 1498 1500 1503 1505 1508 1510 1513 1516 1519 1522 1524 1526 1529 1532 1535 1537 1540 1542 1543 1545 1546
1480 1478 1475 1476 1477 1478 1478 1479 1479 1481 1483 1485 1488 1491 1489 1486 1487 1488 1488 1489 1490 1491 1492 1495 1497 1500 1503 1505 1508 1510 1513 1515 1518 1521 1523 1526 1529 1531 1533 1535 1537 1539 1541 1543
1478 1476 1475 1475 1476 1476 1477 1476 1477 1479 1485 1489 1489 1494 1488 1484 1484 1483 1484 1485 1486 1487 1489 1492 1494 1497 1500 1502 1505 1507 1510 1512 1515 1518 1520 1522 1524 1526 1528 1531 1533 1536 1537 1539
1477 1475 1475 1474 1473 1473 1475 1473 1476 1479 1484 1490 1490 1494 1488 1481 1481 1479 1478 1478 1480 1483 1485 1488 1491 1493 1496 1499 1502 1504 1507 1509 1511 1514 1517 1519 1521 1524 1526 1528 1530 1532 1533 1535
1476 1475 1474 1473 1472 1472 1473 1476 1479 1483 1486 1493 1489 1493 1488 1480 1474 1471 1471 1472 1475 1479 1481 1484 1487 1490 1493 1496 1499 1501 1504 1506 1508 1510 1512 1514 1517 1519 1522 1524 1526 1528 1529 1531
1477 1475 1474 1473 1473 1474 1475 1481 1488 1490 1492 1492 1484 1487 1482 1469 1465 1464 1465 1468 1471 1474 1477 1480 1484 1487 1489 1492 1495 1498 1500 1502 1505 1507 1509 1511 1514 1516 1518 1520 1522 1524 1525 1526
1480 1479 1475 1474 1474 1475 1477 1479 1486 1489 1491 1490 1484 1485 1475 1464 1461 1460 1462 1465 1468 1472 1474 1477 1480 1483 1486 1489 1492 1494 1497 1499 1501 1503 1505 1507 1510 1512 1514 1516 1518 1520 1521 1522
1478 1479 1475 1473 1473 1474 1477 1480 1480 1485 1487 1489 1486 1478 1469 1463 1463 1462 1463 1466 1468 1470 1472 1475 1478 1481 1484 1486 1489 1491 1493 1495 1497 1499 1501 1503 1505 1508 1510 1512 1514 1515 1516 1517
1474 1477 1476 1474 1473 1474 1474 1476 1482 1486 1488 1488 1483 1480 1477 1469 1467 1466 1466 1467 1468 1470 1472 1474 1477 1479 1482 1484 1487 1489 1490 1492 1494 1495 1497 1499 1501 1503 1506 1507 1509 1511 1512 1512
1472 1478 1479 1477 1477 1476 1476 1477 1480 1485 1486 1490 1489 1486 1471 1469 1467 1468 1468 1468 1469 1470 1472 1474 1476 1478 1480 1482 1484 1485 1487 1488 1489 1491 1493 1495 1497 1499 1501 1503 1505 1506 1507 1508
1472 1478 1482 1479 1476 1475 1475 1475 1478 1484 1487 1490 1492 1488 1469 1467 1467 1467 1468 1470 1471 1472 1473 1474 1476 1477 1478 1480 1481 1482 1483 1484 1486 1487 1489 1491 1493 1496 1498 1500 1501 1502 1503 1504
1471 1478 1485 1484 1483 1478 1475 1474 1475 1480 1486 1492 1492 1486 1471 1470 1469 1470 1470 1471 1472 1473 1474 1474 1475 1476 1477 1477 1478 1479 1480 1481 1482 1484 1486 1488 1490 1492 1494 1496 1498 1499 1500 1500
1469 1476 1482 1483 1479 1477 1476 1474 1474 1480 1487 1488 1487 1482 1475 1474 1473 1472 1472 1472 1473 1473 1474 1474 1474 1474 1475 1475 1475 1476 1476 1478 1479 1481 1483 1485 1487 1489 1491 1493 1494 1495 1495 1495
1470 1476 1476 1476 1473 1474 1474 1473 1474 1478 1480 1484 1481 1479 1476 1475 1474 1474 1473 1473 1473 1473 1473 1473 1473 1472 1472 1472 1472 1473 1473 1474 1476 1477 1480 1482 1484 1486 1488 1489 1490 1491 1491 1491
1471 1476 1478 1477 1474 1474 1475 1474 1474 1475 1476 1477 1478 1478 1474 1473 1473 1473 1473 1473 1473 1472 1472 1471 1470 1470 1469 1469 1469 1469 1470 1471 1472 1474 1476 1479 1481 1482 1484 1485 1486 1487 1487 1487
1474 1477 1481 1482 1477 1476 1480 1474 1473 1473 1473 1474 1476 1475 1473 1473 1473 1473 1473 1473 1472 1471 1470 1469 1468 1467 1466 1465 1465 1465 1466 1467 1469 1471 1473 1475 1477 1479 1480 1482 1482 1483 1483 1482
1474 1478 1483 1484 1482 1486 1477 1470 1470 1472 1474 1473 1473 1472 1472 1472 1473 1473 1473 1472 1471 1469 1468 1466 1465 1463 1463 1462 1462 1462 1463 1463 1465 1467 1469 1471 1473 1475 1477 1477 1478 1478 1478 1478
1471 1476 1482 1485 1486 1482 1474 1470 1470 1472 1475 1475 1473 1473 1472 1471 1471 1472 1472 1471 1470 1468 1466 1464 1462 1460 1459 1458 1458 1458 1459 1460 1461 1463 1466 1468 1470 1471 1472 1473 1474 1474 1474 1474
1472 1474 1481 1484 1482 1480 1474 1470 1469 1471 1476 1476 1474 1473 1472 1471 1474 1473 1470 1469 1467 1465 1463 1461 1459 1457 1456 1455 1455 1455 1455 1456 1458 1460 1462 1464 1465 1467 1468 1469 1470 1470 1470 1469
1476 1478 1481 1482 1482 1477 1472 1469 1469 1478 1477 1476 1474 1473 1472 1472 1473 1471 1469 1467 1465 1463 1461 1459 1457 1455 1453 1452 1452 1452 1452 1453 1455 1456 1458 1459 1461 1462 1463 1464 1465 1465 1465 1465
1476 1480 1481 1482 1481 1480 1470 1469 1473 1474 1474 1474 1473 1473 1472 1471 1470 1468 1467 1465 1463 1461 1459 1457 1454 1452 1451 1450 1449 1449 1450 1451 1451 1452 1453 1455 1456 1457 1458 1459 1460 1460 1460 1460
1473 1473 1474 1475 1475 1471 1470 1470 1472 1472 1473 1473 1472 1472 1471 1469 1468 1466 1464 1463 1461 1459 1457 1455 1453 1451 1449 1448 1447 1447 1447 1447 1448 1448 1449 1450 1451 1452 1453 1454 1454 1455 1455 1455
1470 1469 1471 1472 1471 1471 1471 1471 1472 1472 1472 1472 1471 1470 1469 1467 1465 1464 1462 1460 1458 1456 1454 1452 1450 1449 1447 1446 1445 1444 1444 1443 1443 1444 1444 1445 1446 1447 1448 1448 1449 1450 1450 1450
1467 1468 1470 1470 1470 1471 1471 1471 1471 1471 1471 1470 1469 1468 1467 1465 1463 1461 1459 1457 1455 1453 1451 1450 1448 1446 1444 1443 1442 1441 1440 1440 1439 1439 1440 1440 1441 1442 1442 1443 1444 1444 1445 1446
1464 1465 1468 1468 1466 1468 1468 1469 1469 1469 1468 1467 1466 1464 1463 1462 1459 1458 1456 1454 1452 1450 1448 1446 1444 1442 1441 1439 1438 1437 1436 1436 1435 1435 1435 1435 1436 1436 1437 1437 1438 1439 1440 1440